This is the latest recevied weather packets stored in our database for station/object N4DBJ. If no packets are shown the sender has not sent any weather packets the latest 10 day(s).
| Time | Temp. | Humidity | Pressure | Rain* | Wind** | Luminosity | Snow |
|---|---|---|---|---|---|---|---|
| 1777829406 | 16.67° C | 45% | 1018 hPa | 0 mm | - | 758 W/m² | - |
| 1777829104 | 17.22° C | 42% | 1018.1 hPa | 0 mm | - | 736 W/m² | - |
| 1777828801 | 16.67° C | 41% | 1018.2 hPa | 0 mm | - | 751 W/m² | - |
| 1777828497 | 17.22° C | 41% | 1018.3 hPa | 0 mm | - | 759 W/m² | - |
| 1777828194 | 16.67° C | 43% | 1018.1 hPa | 0 mm | - | 771 W/m² | - |
| 1777827891 | 16.11° C | 43% | 1018.4 hPa | 0 mm | - | 756 W/m² | - |
| 1777827588 | 16.11° C | 43% | 1018.5 hPa | 0 mm | - | 759 W/m² | - |
| 1777827285 | 17.22° C | 43% | 1018.4 hPa | 0 mm | - | 789 W/m² | - |
| 1777826982 | 17.22° C | 45% | 1018.6 hPa | 0 mm | - | 818 W/m² | - |
| 1777826679 | 17.22° C | 42% | 1018.3 hPa | 0 mm | - | 809 W/m² | - |
| 1777826375 | 16.67° C | 47% | 1018.6 hPa | 0 mm | - | 820 W/m² | - |
| 1777826073 | 16.11° C | 41% | 1018.7 hPa | 0 mm | - | 813 W/m² | - |
| 1777825769 | 16.67° C | 42% | 1018.8 hPa | 0 mm | - | 820 W/m² | - |
| 1777825467 | 17.22° C | 43% | 1018.9 hPa | 0 mm | - | 809 W/m² | - |
| 1777825164 | 16.67° C | 43% | 1018.8 hPa | 0 mm | - | 833 W/m² | - |
| 1777824860 | 17.22° C | 43% | 1019.1 hPa | 0 mm | - | 858 W/m² | - |
| 1777824557 | 17.22° C | 48% | 1019.1 hPa | 0 mm | - | 861 W/m² | - |
| 1777824254 | 16.67° C | 42% | 1019.1 hPa | 0 mm | - | 849 W/m² | - |
| 1777823949 | 15.56° C | 39% | 1019.3 hPa | 0 mm | - | 887 W/m² | - |
| 1777823647 | 15.56° C | 46% | 1019.1 hPa | 0 mm | - | 892 W/m² | - |
| 1777823343 | 15° C | 41% | 1018.9 hPa | 0 mm | - | 846 W/m² | - |
| 1777823041 | 15.56° C | 43% | 1019.2 hPa | 0 mm | - | 816 W/m² | - |
| 1777822739 | 16.11° C | 43% | 1019.1 hPa | 0 mm | - | 828 W/m² | - |
| 1777822437 | 16.11° C | 44% | 1019.1 hPa | 0 mm | - | 779 W/m² | - |
| 1777822134 | 15.56° C | 47% | 1019 hPa | 0 mm | - | 742 W/m² | - |
* Rain latest hour (hover to see other rain measurements)
** Current wind speed in m/s (hover to see current wind gust speed)